Home > Weather > Muscat > Past weeks

Flag for Oman Weather for the Past 2 Weeks in Muscat, Oman

Now
79 °F

Sunny.


Feels Like: 80 °F
Forecast: 71 / 74 °F
Wind: 12 mph from North

Location: International Airport

Current Time: Feb 9, 2016 at 2:33:54 PM

Latest Report: Feb 9, 2016 at 1:50 PM


Visibility: 10 mi

Pressure: 29.98 "Hg

Humidity: 51%

Dew point: 59 °F

Location of MuscatLocation

Historic Weather in Muscat — Graph

°F

Muscat Temperature Yesterday

Maximum temperature yesterday: 79 °F (at 10:50 AM)
Minimum temperature yesterday: 59 °F (at 3:50 AM)
Average temperature yesterday: 70 °F

High & Low Weather Summary for the Past Weeks

 TemperatureHumidityPressure
High88 °F (Jan 26, 3:50 PM)88% (Jan 28, 5:50 AM)30.24 "Hg (Jan 28, 5:50 AM)
Low57 °F (Feb 7, 2:50 AM)22% (Feb 7, 10:50 AM)29.86 "Hg (Jan 26, 2:50 PM)
Average71 °F54%30.04 "Hg
* Reported Jan 25 12:50 PM — Feb 9 12:50 PM, Muscat, Weather by CustomWeather, © 2016

Note: Actual official high and low records may vary slightly from our data, if they occured in-between our weather recording intervals... More about our weather records

Advertising

Muscat Weather History for the Previous 24 Hours

 ConditionsComfort  
Time TempWeatherWind HumidityBarometerVisibility
12:50 PM
Tue, Feb 9
81 °FSunny.10 mph48%29.98 "Hg10 mi
11:50 AM81 °FClear.9 mph37%30.04 "HgN/A
10:50 AM81 °FPassing clouds.5 mph30%30.04 "HgN/A
9:50 AM75 °FPassing clouds.6 mph57%30.07 "HgN/A
8:50 AM73 °FSunny.7 mph61%30.07 "Hg10 mi
7:50 AM70 °FSunny.7 mph60%30.04 "Hg10 mi
6:50 AM66 °FSunny.6 mph64%30.01 "Hg10 mi
5:50 AM64 °FPassing clouds.3 mph73%30.01 "HgN/A
4:50 AM63 °FClear.7 mph77%29.98 "Hg10 mi
3:50 AM63 °FClear.2 mph77%29.98 "Hg10 mi
2:50 AM64 °FPassing clouds.5 mph73%29.98 "HgN/A
1:50 AM64 °FClear.3 mph73%29.98 "Hg10 mi
12:50 AM64 °FClear.2 mph73%29.98 "Hg10 mi
11:50 PM
Mon, Feb 8
66 °FClear.2 mph73%30.01 "Hg10 mi
10:50 PM70 °FClear.5 mph64%30.01 "Hg10 mi
9:50 PM68 °FClear.3 mph69%30.01 "Hg10 mi
8:50 PM70 °FClear.6 mph64%30.01 "Hg10 mi
7:50 PM72 °FClear.9 mph69%30.01 "Hg10 mi
6:50 PM72 °FClear.9 mph69%30.01 "Hg10 mi
5:50 PM73 °FSunny.9 mph65%30.01 "Hg10 mi
4:50 PM75 °FSunny.10 mph61%29.98 "Hg10 mi
3:50 PM77 °FSunny.10 mph54%29.98 "Hg10 mi
2:50 PM77 °FSunny.9 mph44%29.98 "Hg10 mi
Weather by CustomWeather, © 2016

See weather overviewHow to use our weather pages